Location: ?????oe
(44.4874°N, 135.7046°E)
Time: 15:16:01
(UTC+00:00)

Cosmos 405 Rocket - Pass Details

Date: 13 December 2025
Orbit: 384 x 409 km, 81.2° (Epoch: 19 January)

Event Time Altitude Azimuth Distance (km) Brightness Sun altitude
Rises 20:11:31 0° 180° (S) 2,356 6.2 -23.0°
Reaches altitude 10° 20:13:33 10° 176° (S) 1,501 5.2 -22.6°
Maximum altitude 20:16:46 55° 97° (E) 513 2.9 -22.1°
Drops below altitude 10° 20:20:00 10° 19° (NNE) 1,519 5.1 -21.5°
Sets 20:22:05 0° 15° (NNE) 2,389 6.1 -21.1°
